Regional Weather Roundup
Issued by NWS

Home | Current Version | Previous Version | Text Only | Print | Product List | Glossary On
Versions: 1 2 3 4 5 6 7 8 9 10 11 12 13 14 15 16 17 18 19 20 21 22 23 24 25 26 27 28 29 30 31 32 33 34 35 36 37 38 39 40 41 42 43 44 45 46 47 48 49 50
000
ASUS46 KLOX 051313
RWRCA

SOUTHERN CALIFORNIA WEATHER ROUNDUP
NATIONAL WEATHER SERVICE OXNARD CALIFORNIA
600 AM PDT SAT SEP 05 2015

NOTE: "FAIR" INDICATES FEW OR NO CLOUDS BELOW 12,000 FEET WITH NO
SIGNIFICANT WEATHER AND/OR OBSTRUCTIONS TO VISIBILITY.

  -  STATIONS PRECEEDED BY AN ASTERISK (*) ARE NOT NWS OR FAA
     STATIONS AND ARE NOT SUBJECT TO NWS AND FAA QUALITY CONTROL.

CAZ041-042-087-051400-
LA AND ORANGE COUNTY COASTAL AREAS


CITY           SKY/WX    TMP DP  RH WIND       PRES   REMARKS
L.A. DOWNTOWN  CLEAR     65  58  78 CALM      29.88S
L.A. AIRPORT   MOCLDY    65  60  84 NE5       29.89R
LONG BEACH     CLEAR     64  59  83 CALM      29.88S

CITY           SKY/WX    TMP DP  RH WIND       PRES   REMARKS
AVALON           N/A     64 N/A N/A MISG        N/A
FULLERTON      CLEAR     64  58  80 E5        29.88R
*GETTY CENTER    N/A     59  59 100 N3          N/A
HAWTHORNE      MOCLDY    66  59  78 CALM      29.89R
*LEO CARRILLO    N/A     61  53  76 NW7         N/A
*LOS ALAMITOS  FAIR      62  58  87 E3        29.88S
*REDONDO BEACH   N/A     64  60  87 CALM      29.89R
SANTA ANA      MOCLDY    65  59  81 E3        29.88S
STA MONICA APT CLOUDY    65  59  81 CALM      29.89R
*UCLA            N/A     63  57  82 N5        29.87R

$$

CAZ547-548-048-051400-
LA COUNTY VALLEYS AND INLAND EMPIRE


CITY           SKY/WX    TMP DP  RH WIND       PRES   REMARKS
BURBANK        CLEAR     62  54  74 CALM      29.90R
VAN NUYS       LGT RAIN  62  54  74 CALM      29.90R

CITY           SKY/WX    TMP DP  RH WIND       PRES   REMARKS
CORONA AIRPORT SUNNY     52  51  96 CALM      29.91R
*CHATSWORTH      N/A     59  53  80 CALM      29.90S
CHINO          CLEAR     58  55  90 CALM      29.91R
*CLAREMONT       N/A     54  51  91 CALM        N/A
MARCH AFB      CLEAR     56  54  95 SE2       29.91R
*NORTHRIDGE      N/A     59  54  82 CALM        N/A
ONTARIO        PTCLDY    61  56  83 W6        29.90R
*PASADENA        N/A     63  57  82 CALM        N/A
RIVERSIDE      CLEAR     59  54  83 SE3       29.90R
SAN BERNARDINO NOT AVBL
*SAN GABRIEL     N/A     62  58  86 S1        29.96R
*SAN RAFAEL HI   N/A     57  57 100 CALM        N/A
*SAUGUS          N/A     57  54  89 E3          N/A
*WHITEMAN AP   NOT AVBL
*WHITTIER HILL   N/A     58  58 100 SE5         N/A
*WOODLAND HILL   N/A     57  54  88 SE1         N/A

$$

CAZ054-055-051400-
LA AND SAN BERNARDINO COUNTY MOUNTAINS


CITY           SKY/WX    TMP DP  RH WIND       PRES   REMARKS
*BIG BEAR AIRP SUNNY     36  19  51 CALM      30.10R
*CHILAO          N/A     57  11  16 E8          N/A
SANDBERG       PTCLDY    55  39  54 W10       30.00S
*WARM SPRINGS    N/A     56  41  57 W8          N/A

$$

CAZ028-029-059-060-099-051400-
ANTELOPE VALLEY AND SURROUNDING AREAS


CITY           SKY/WX    TMP DP  RH WIND       PRES   REMARKS
LANCASTER      CLEAR     59  45  59 W10       29.92R
PALMDALE       CLEAR     58  50  75 S12       29.93R
*POPPY PARK      N/A     59  43  56 SW9         N/A

CITY           SKY/WX    TMP DP  RH WIND       PRES   REMARKS
29 PALMS       CLEAR     63  36  36 NW3       29.94R
BARSTOW/DAGGET CLEAR     62  46  55 W10       29.89R
BISHOP         CLEAR     44  26  49 W7        29.92S
CHINA LAKE     PTCLDY    54  33  45 VRB3      29.85R
EDWARDS AFB    PTCLDY    61  38  42 SW9       29.89R
NEEDLES        CLEAR     83  58  42 SW7       29.81R
VICTORVILLE    CLEAR     54  46  76 CALM      29.93R

$$

CAZ039-040-051400-
VENTURA AND SANTA BARBARA COUNTY COAST


CITY           SKY/WX    TMP DP  RH WIND       PRES   REMARKS
CAMARILLO      CLEAR     60  53  77 NE3       29.88S
NWS OXNARD       N/A     58  53  83 CALM      29.87S
OXNARD AIRPORT CLEAR     60  54  80 NE6       29.88S
*POINT MUGU    PTCLDY    59  54  83 CALM      29.88S
SBA APT/GOLETA CLEAR     60  54  80 CALM      29.87R
*SANTA BARBARA   N/A     65  56  74 CALM      29.95R
*VENTURA         N/A     59  54  82 CALM      29.50S

$$

CAZ044-045-051400-
VENTURA COUNTY VALLEYS


CITY           SKY/WX    TMP DP  RH WIND       PRES   REMARKS
*SIMI VALLEY     N/A     57  54  89 CALM      29.86S
*OJAI            N/A     51  49  91 CALM      29.85R
*FILLMORE        N/A     54  50  86 W14       29.79S

$$

CAZ053-051400-
VENTURA COUNTY MOUNTAINS


CITY           SKY/WX    TMP DP  RH WIND       PRES   REMARKS
*LOCKWOOD VLY    N/A     36  32  87 MISG        N/A
*ROSE VALLEY     N/A     41  41 100 MISG        N/A

$$

CAZ034-035-036-051400-
CENTRAL COAST AND SANTA YNEZ VALLEY


CITY           SKY/WX    TMP DP  RH WIND       PRES   REMARKS
SAN LUIS OBISP CLEAR     51  46  83 CALM      29.91R
SANTA MARIA    CLEAR     51  48  89 SE3       29.91S

CITY           SKY/WX    TMP DP  RH WIND       PRES   REMARKS
*CAL POLY SLO    N/A     50  48  93 CALM        N/A
*LOMPOC        PTCLDY    48  43  81 CALM      29.92R
*PISMO BEACH     N/A     51  49  91 NE3       29.92R
*SANTA YNEZ    FAIR      50  45  81 SW3       29.92R

$$

CAZ037-038-051-051400-
SAN LUIS OBISPO COUNTY INTERIOR AND CUYAMA VALLEY


CITY           SKY/WX    TMP DP  RH WIND       PRES   REMARKS
*CUYAMA          N/A     50  40  67 E2        29.86S
PASO ROBLES    CLEAR     48  45  89 S3        29.94R

$$

CAZ032-033-061-051400-
SOUTHERN DESERTS


CITY           SKY/WX    TMP DP  RH WIND       PRES   REMARKS
BLYTHE         CLEAR     80  72  76 S6        29.79R
IMPERIAL       CLEAR     81  70  69 NE5       29.75R
PALM SPRINGS   CLEAR     72  51  47 NW5       29.82R
THERMAL        CLEAR     65  50  58 N5        29.76R

$$

ELSEWHERE ACROSS THE WESTERN UNITED STATES AND MEXICO


CITY           SKY/WX    TMP DP  RH WIND       PRES   REMARKS
DEATH VALLEY,    N/A     82  41  23 SE2         N/A
DENVER, CO     MOCLDY    65  49  56 W7        29.98R
GRAND CANYON,  MOCLDY    49  47  93 CALM      30.18R
HONOLULU, HI   PTCLDY    79  73  83 NW3       29.82S
KAHULUI, MAUI  CLEAR     77  70  78 N3        29.83F
LAKE TAHOE, CA CLEAR     43  20  39 SW3       30.03R
LAS VEGAS, NV  PTCLDY    75  36  24 S8        29.81R
MAMMOTH LAKES, FAIR      34  27  75 NW5       30.06R WCI  30
MEXICO CITY, M CLOUDY    59  54  82 N5        30.33
PHOENIX, AZ    CLOUDY    81  66  60 SE3       29.85R
PORTLAND, OR   MOCLDY    53  48  83 S3        30.08R
RENO, NV       PTCLDY    46  28  49 N7        30.03R
SALT LAKE CITY PTCLDY    73  42  32 S23G32    29.84S
SAN DIEGO, CA  PTCLDY    69  57  65 CALM      29.89R
SAN FRANCISCO, PTCLDY    54  49  83 W5        29.94R
SAN JOSE, CA   CLEAR     53  48  83 SE5       29.93R
SEATTLE, WA    PTCLDY    48  46  93 SE5       30.05R
TIJUANA, MEX   PTCLDY    66  55  68 N3        29.90F

$$

STATION/POSITION TIME  TEMP    WIND        PRES    VSBY  WAVE
                       AIR SEA DIR/SP/G                  HT/PER
                 (UTC) (F)     (DEG/KT/KT) (MB)    (MI)  (FT/S)
POINT ARGUELLO B NOT AVBL
WEST SANTA BARBA 1250   61 64  330/ 16/ 19 1010.9R         7/ 8
POINT CONCEPTION NOT AVBL
EAST SANTA BARBA 1300   66 70  220/  8/ 10 1012.0R
SANTA MONICA BAY 1250   67 71  320/  6/  8 1011.6R         4/19


USA.gov is the U.S. government's official web portal to all federal, state and local government web resources and services.